EW6920 Weather Reports


time (UTC)temp
F
wind
direction
speed
knots
gust
knots
rain 1hr
in
rain 24hr
in
rain mn
in
humidity
%
barometer
mb
20260906161603 76 223 2.6 6.1 0.00 0.00 0.00 64 1020.8
20260906160056 75 226 2.6 6.1 0.00 0.00 0.00 67 1020.8
20260906154604 74 205 3.5 6.1 0.00 0.00 0.00 67 1020.7
20260906153048 74 221 2.6 7.0 0.00 0.00 0.00 71 1020.8
20260906151555 73 213 3.5 7.0 0.00 0.00 0.00 72 1020.7
20260906150101 71 246 4.3 7.0 0.00 0.00 0.00 76 1020.8
20260906144620 69 238 5.2 7.0 0.00 0.00 0.00 78 1020.7
20260906143056 69 252 4.3 7.0 0.00 0.00 0.00 78 1020.7
20260906141607 68 246 5.2 8.7 0.00 0.00 0.00 81 1020.7
20260906140057 66 211 2.6 6.1 0.00 0.00 0.00 89 1020.9
20260906134549 64 255 3.5 6.1 0.00 0.00 0.00 95 1021.0
20260906133101 62 208 1.7 3.5 0.00 0.00 0.00 94 1021.0
20260906131557 61 0 0.0 0.9 0.00 0.00 0.00 94 1021.0
20260906130056 60 0 0.0 2.6 0.00 0.00 0.00 94 1020.9
20260906124550 59 0 0.0 1.7 0.00 0.00 0.00 94 1020.9
20260906123048 59 0 0.0 1.7 0.00 0.00 0.00 94 1020.8
20260906121559 59 0 0.0 0.0 0.00 0.00 0.00 93 1020.6
20260906120104 59 0 0.0 0.0 0.00 0.00 0.00 94 1020.4
20260906114550 59 0 0.0 0.0 0.00 0.00 0.00 93 1020.2
20260906113049 59 0 0.0 0.0 0.00 0.00 0.00 93 1020.0
20260906111556 59 0 0.0 0.0 0.00 0.00 0.00 93 1019.9
20260906110057 60 0 0.0 0.0 0.00 0.00 0.00 93 1019.7
20260906104611 60 0 0.0 0.0 0.00 0.00 0.00 93 1019.6
20260906103047 61 0 0.0 0.0 0.00 0.00 0.00 93 1019.8
20260906101548 61 0 0.0 0.0 0.00 0.00 0.00 93 1019.7
20260906100056 61 0 0.0 1.7 0.00 0.00 0.00 93 1019.6
20260906094622 61 0 0.0 1.7 0.00 0.00 0.00 93 1019.6
20260906093101 61 0 0.0 2.6 0.00 0.00 0.00 93 1019.5
20260906091555 62 0 0.9 3.5 0.00 0.00 0.00 93 1019.4
20260906090057 62 232 3.5 6.1 0.00 0.00 0.00 92 1019.4
20260906084550 62 235 3.5 6.1 0.00 0.00 0.00 93 1019.4
20260906083048 62 215 3.5 6.1 0.00 0.00 0.00 92 1019.4
20260906081553 63 198 1.7 5.2 0.00 0.00 0.00 92 1019.4
20260906080058 63 237 2.6 6.1 0.00 0.00 0.00 93 1019.4
20260906074557 62 234 3.5 6.1 0.00 0.00 0.00 92 1019.5
20260906073050 62 269 0.0 2.6 0.00 0.00 0.00 92 1019.7
20260906071558 62 184 0.0 1.7 0.00 0.00 0.00 91 1019.6
20260906070107 62 0 0.0 0.0 0.00 0.00 0.00 91 1019.8
20260906064555 62 0 0.0 0.0 0.00 0.00 0.00 91 1019.7
20260906063050 62 0 0.0 0.0 0.00 0.00 0.00 90 1019.7
20260906061551 62 0 0.0 1.7 0.00 0.00 0.00 91 1019.5
20260906060100 62 0 0.0 1.7 0.00 0.00 0.00 91 1019.4
20260906054557 62 0 0.0 0.9 0.00 0.00 0.00 91 1019.2
20260906053051 62 0 0.0 2.6 0.00 0.00 0.00 91 1019.3
20260906051556 62 0 0.0 0.9 0.00 0.00 0.00 92 1018.9
20260906050114 62 0 0.0 0.0 0.00 0.00 0.00 92 1019.1
20260906044555 62 0 0.0 0.0 0.00 0.00 0.00 91 1019.1
20260906043058 62 0 0.0 0.0 0.00 0.00 0.00 91 1018.9
20260906041550 63 0 0.0 0.0 0.00 0.00 0.00 90 1018.9
20260906040132 63 0 0.0 0.0 0.00 0.00 0.00 90 1018.5
20260906034603 63 0 0.0 0.0 0.00 0.00 0.00 90 1018.4
20260906033048 64 0 0.0 0.0 0.00 0.00 0.00 90 1018.4
20260906031602 64 0 0.0 0.0 0.00 0.00 0.00 89 1018.6
20260906030056 64 0 0.0 1.7 0.00 0.00 0.00 89 1018.4
20260906024550 64 0 0.9 1.7 0.00 0.00 0.00 88 1018.4
20260906023051 65 0 0.0 1.7 0.00 0.00 0.00 87 1018.2
20260906021605 65 0 0.0 0.0 0.00 0.00 0.00 86 1018.1
20260906020058 66 0 0.0 0.0 0.00 0.00 0.00 84 1018.1
20260906014601 66 0 0.0 0.0 0.00 0.00 0.00 83 1017.8
20260906013101 67 0 0.0 0.0 0.00 0.00 0.00 82 1017.7
20260906011602 68 0 0.0 0.0 0.00 0.00 0.00 79 1017.8
20260906010105 69 0 0.0 0.0 0.00 0.00 0.00 77 1017.6
20260906004550 70 0 0.0 1.7 0.00 0.00 0.00 74 1017.5
20260906003100 71 0 0.0 0.0 0.00 0.00 0.00 73 1017.3
20260906001607 72 0 0.0 1.7 0.00 0.00 0.00 71 1017.1
20260906000051 73 74 0.0 2.6 0.00 0.00 0.00 68 1017.2
20260905234549 74 77 0.9 2.6 0.00 0.00 0.00 68 1017.3
20260905233109 75 71 0.9 2.6 0.00 0.00 0.00 65 1017.3
20260905231554 76 80 0.9 1.7 0.00 0.00 0.00 66 1017.4
20260905230053 76 84 0.9 3.5 0.00 0.00 0.00 62 1017.4
20260905224608 77 0 0.9 2.6 0.00 0.00 0.00 63 1017.2
20260905223057 76 224 0.0 0.9 0.00 0.00 0.00 62 1017.1
20260905221552 77 0 0.0 0.0 0.00 0.00 0.00 64 1017.2
20260905220053 79 0 0.0 2.6 0.00 0.00 0.00 60 1017.2
20260905214554 80 162 0.9 6.1 0.00 0.00 0.00 55 1017.1
20260905213100 80 68 1.7 4.3 0.00 0.00 0.00 54 1017.2
20260905211549 82 0 0.9 3.5 0.00 0.00 0.00 53 1017.3
20260905210109 82 5 0.9 3.5 0.00 0.00 0.00 51 1017.5
20260905204555 81 347 1.7 3.5 0.00 0.00 0.00 55 1017.7
20260905203057 81 225 1.7 3.5 0.00 0.00 0.00 56 1017.6
20260905201605 81 221 0.0 1.7 0.00 0.00 0.00 52 1017.7
20260905200128 81 0 0.0 2.6 0.00 0.00 0.00 52 1017.7
20260905194554 81 259 0.9 5.2 0.00 0.00 0.00 55 1017.6
20260905193048 81 0 0.9 5.2 0.00 0.00 0.00 54 1017.8
20260905191546 80 293 0.9 4.3 0.00 0.00 0.00 54 1017.9
20260905190057 80 193 1.7 6.1 0.00 0.00 0.00 54 1017.8
20260905184609 80 242 1.7 4.3 0.00 0.00 0.00 56 1017.9
20260905183050 79 272 1.7 7.0 0.00 0.00 0.00 58 1018.1
20260905181547 79 279 1.7 7.0 0.00 0.00 0.00 57 1018.0
20260905174559 79 0 0.0 2.6 0.00 0.00 0.00 56 1018.6
20260905173046 78 329 0.9 4.3 0.00 0.00 0.00 58 1018.8
20260905171605 77 157 1.7 5.2 0.00 0.00 0.00 62 1018.6
20260905170059 76 10 0.9 3.5 0.00 0.00 0.00 60 1018.6
20260905164551 76 0 1.7 5.2 0.00 0.00 0.00 62 1018.9
20260905163051 75 74 0.0 4.3 0.00 0.00 0.00 63 1018.7